Погода в Новоандреевке

Россия / Алтайский край     53°02′25″N   78°23′01″E
темп.,
°C
ветер,
м/с
пор.,
м/с
влажн.,
%
обл.,
%
осадки,
мм/ч
давл.,
гПа
погр.,
м
8 декабря, ср
ср801:00−19зсз49935 0.0 1033141
04:00−22з36975 0.0 103691
07:00−23з34985 0.0 103855
10:00−23зсз35985 0.0 104061
13:00−19зсз34955 0.0 1041124
16:00−19з34945 0.0 1041102
19:00−22з34975 0.0 104249
22:00−23з34995 0.0 104450
9 декабря, чт
чт901:00−23з35985 0.0 104566
04:00−22з359514 0.0 104676
07:00−22зюз35965 0.0 104670
10:00−23зюз24975 0.0 104850
13:00−18зюз359147 0.0 1049133
16:00−18юз35915 0.0 1049108
19:00−21юз349553 0.0 105054
22:00−17ююз388977 0.0 1049157
10 декабря, пт
пт1001:00−16ююз4986100 0.0 1048196
04:00−13ююз5108680 0.0 1046274
07:00−13ююз5108580 0.0 1045217
10:00−12ююз498394 0.0 1045226
13:00−12ююз488362 0.0 1045202
16:00−12ю378445 0.0 1043127
19:00−14ю46835 0.0 104377
22:00−14ю488154 0.0 104298
11 декабря, сб
сб1101:00−13ююв488158 0.0 1040106
04:00−12ююв4980100 0.0 1038123
07:00−11ююв41179100 0.0 1036165
10:00−10ююв51277100 0.0 1035214
13:00−8ююв51376100 0.0 1032256
16:00−7ююв51378100 0.0 1029274
19:00−7ююв51380100 0.0 1027264
22:00−8ююв61380100 0.0 1024285
12 декабря, вс
вс1201:00−8ююв51381100 0.0 1021274
04:00−8ю51282100 0.0 1019211
07:00−6ююз61383100 0.0 1018268
10:00−8ююз598614 0.0 1018183
13:00−8юз4109124 0.0 1019263
16:00−10з4892100 0.0 1021213
19:00−11зсз4794100 0.1 1024326
22:00−14сз489481 0.0 1027206